IV3CGM-1 Weather Reports


time (UTC)temp
F
wind
direction
speed
knots
gust
knots
rain 1hr
in
rain 24hr
in
rain mn
in
humidity
%
barometer
mb
20260502231910 54 228 4.3 5.2 0.00 0.00 0.00 56
20260502230934 54 257 3.5 4.3 0.00 0.00 0.00 56
20260502225945 54 252 1.7 4.3 0.00 0.00 0.00 55
20260502224955 54 210 1.7 1.7 0.00 0.00 0.00 56
20260502223947 54 210 1.7 3.5 0.00 0.00 0.00 56
20260502222844 54 217 0.0 1.7 0.00 0.00 0.00 56
20260502221843 54 217 1.7 4.3 0.00 0.00 0.00 55
20260502220835 55 228 2.6 6.1 0.00 0.00 0.00 54
20260502215808 55 270 5.2 5.2 0.00 0.00 0.00 55
20260502214819 53 321 4.3 4.3 0.00 0.00 0.00 57
20260502213755 53 336 2.6 6.1 0.00 0.00 0.00 58
20260502212832 54 42 4.3 6.1 0.00 0.00 0.00 59
20260502211818 55 24 3.5 5.2 0.00 0.00 0.00 56
20260502210843 55 44 3.5 3.5 0.00 0.00 0.00 54
20260502205858 55 24 2.6 5.2 0.00 0.00 0.00 54
20260502204819 55 41 1.7 5.2 0.00 0.00 0.00 54
20260502203755 55 55 5.2 5.2 0.00 0.00 0.00 53
20260502202754 55 326 2.6 3.5 0.00 0.00 0.00 53
20260502201832 55 312 3.5 5.2 0.00 0.00 0.00 53
20260502200754 55 300 5.2 5.2 0.00 0.00 0.00 54
20260502195730 55 293 4.3 5.2 0.00 0.00 0.00 55
20260502194657 55 307 4.3 7.0 0.00 0.00 0.00 58
20260502193533 55 300 6.1 7.8 0.00 0.00 0.00 58
20260502192532 55 297 7.8 7.8 0.00 0.00 0.00 57
20260502191556 55 312 7.8 7.8 0.00 0.00 0.00 56
20260502190554 55 294 6.1 6.1 0.00 0.00 0.00 55
20260502185533 55 304 1.7 3.5 0.00 0.00 0.00 55
20260502184546 55 283 2.6 4.3 0.00 0.00 0.00 53
20260502183507 55 222 3.5 4.3 0.00 0.00 0.00 55
20260502182531 54 228 4.3 6.1 0.00 0.00 0.00 58
20260502181522 55 204 4.3 6.1 0.00 0.00 0.00 59
20260502180555 55 156 5.2 9.6 0.00 0.00 0.00 54
20260502163432 58 132 6.1 10.4 0.00 0.00 0.00 49
20260502162509 58 180 5.2 13.0 0.00 0.00 0.00 49
20260502161508 58 150 7.8 13.0 0.00 0.00 0.00 48
20260502160554 58 156 7.0 11.3 0.00 0.00 0.00 48
20260502151609 59 193 4.3 13.0 0.00 0.00 0.00 47
20260502150557 59 132 6.1 11.3 0.00 0.00 0.00 46
20260502130733 59 162 5.2 13.0 0.00 0.00 0.00 45
20260502122845 58 120 7.8 13.9 0.00 0.00 0.00 47
20260502121818 59 89 7.8 11.3 0.00 0.00 0.00 46
20260502120809 57 150 9.6 13.9 0.00 0.00 0.00 47
20260502115754 58 253 7.0 11.3 0.00 0.00 0.00 47
20260502114821 58 127 4.3 13.9 0.00 0.00 0.00 45
20260502113819 59 127 12.2 13.9 0.00 0.00 0.00 43
20260502112831 59 180 5.2 11.3 0.00 0.00 0.00 44
20260502111819 59 143 7.0 11.3 0.00 0.00 0.00 45
20260502110821 57 143 7.8 13.9 0.00 0.00 0.00 45
20260502105809 57 143 9.6 12.2 0.00 0.00 0.00 44
20260502104844 58 120 6.1 12.2 0.00 0.00 0.00 45
20260502103832 56 132 5.2 11.3 0.00 0.00 0.00 46
20260502102908 56 132 7.8 13.9 0.00 0.00 0.00 47
20260502101919 57 143 10.4 12.2 0.00 0.00 0.00 46
20260502100929 57 108 5.2 13.0 0.00 0.00 0.00 46
20260502091054 56 162 7.0 10.4 0.00 0.00 0.00 46
20260502090129 55 132 6.1 7.8 0.00 0.00 0.00 46
20260502080107 56 210 4.3 5.2 0.00 0.00 0.00 46
20260502071018 55 103 4.3 6.1 0.00 0.00 0.00 47
20260502070056 54 114 3.5 5.2 0.00 0.00 0.00 50
20260502065130 55 156 1.7 4.3 0.00 0.00 0.00 47
20260502064118 55 100 1.7 4.3 0.00 0.00 0.00 49
20260502063130 53 138 2.6 5.2 0.00 0.00 0.00 50
20260502062127 54 132 4.3 5.2 0.00 0.00 0.00 47
20260502061119 54 60 3.5 4.3 0.00 0.00 0.00 45
20260502060017 52 138 4.3 4.3 0.00 0.00 0.00 47
20260502055016 52 143 4.3 4.3 0.00 0.00 0.00 47
20260502054056 52 138 1.7 5.2 0.00 0.00 0.00 48
20260502053107 52 103 3.5 5.2 0.00 0.00 0.00 48
20260502052144 52 138 2.6 2.6 0.00 0.00 0.00 44
20260502051039 51 120 1.7 3.5 0.00 0.00 0.00 49
20260502050105 51 132 3.5 3.5 0.00 0.00 0.00 48
20260502045056 49 228 1.7 1.7 0.00 0.00 0.00 50
20260502044043 48 228 1.7 2.6 0.00 0.00 0.00 49
20260502043041 48 252 1.7 6.1 0.00 0.00 0.00 50
20260502042106 48 264 6.1 6.1 0.00 0.00 0.00 53
20260502041129 48 246 1.7 2.6 0.00 0.00 0.00 50
20260502040207 47 246 0.0 2.6 0.00 0.00 0.00 50
20260502035217 47 246 0.0 3.5 0.00 0.00 0.00 50
20260502034152 46 222 0.0 6.1 0.00 0.00 0.00 52
20260502033129 46 228 5.2 7.0 0.00 0.00 0.00 55
20260502032154 46 222 4.3 4.3 0.00 0.00 0.00 52
20260502031152 46 222 3.5 5.2 0.00 0.00 0.00 52
20260502030217 47 222 5.2 7.0 0.00 0.00 0.00 50
20260502025255 49 264 5.2 7.0 0.00 0.00 0.00 50
20260502024330 48 270 5.2 6.1 0.00 0.00 0.00 49
20260502023306 48 270 2.6 3.5 0.00 0.00 0.00 50
20260502022342 48 264 3.5 5.2 0.00 0.00 0.00 47
20260502021330 49 264 4.3 7.0 0.00 0.00 0.00 47
20260502020330 49 276 6.1 7.0 0.00 0.00 0.00 47
20260502015408 47 240 1.7 2.6 0.00 0.00 0.00 48
20260502014441 47 228 2.6 3.5 0.00 0.00 0.00 49
20260502013455 47 210 2.6 2.6 0.00 0.00 0.00 49
20260502012417 48 228 0.0 1.7 0.00 0.00 0.00 47
20260502011503 48 228 1.7 3.5 0.00 0.00 0.00 46
20260502010529 48 217 3.5 3.5 0.00 0.00 0.00 47
20260502005529 48 210 2.6 2.6 0.00 0.00 0.00 47
20260502004506 48 162 1.7 3.5 0.00 0.00 0.00 48
20260502003530 48 132 3.5 3.5 0.00 0.00 0.00 47
20260502002507 48 198 2.6 3.5 0.00 0.00 0.00 47
20260502001503 49 228 0.0 1.7 0.00 0.00 0.00 46
20260502000439 49 228 1.7 2.6 0.00 0.00 0.00 45
20260501235440 49 228 1.7 1.7 0.00 0.00 0.00 45
20260501234504 49 228 1.7 1.7 0.00 0.00 0.00 46
20260501233541 49 228 1.7 1.7 0.00 0.00 0.00 45
20260501232617 49 210 0.0 3.5 0.00 0.00 0.00 45